logo
Search for airport 
image banner adimage banner adimage banner ad
image banner ad

DIKB - Bouake

Located in , Cote D'Ivoire

ICAO - , IATA -

Data provided by Airmate  

General information

Coordinates: N7°45'9" W5°4'4"
Elevation is 1231 feet MSL.
Magnetic variation is -5° East
View others Airports in Vallée du Bandama

Operational data

Special qualification required
Current time UTC:
Current local time:
Weather at : DIBK - Bouake ( 0 km )
METAR: DIBK 172300Z 18004KT 8000 NSC 26/26 Q1015 NOSIG
TAF: TAF DIBK 171712Z 1718/1818 VRB03KT 8000 FEW015 PROB40 1806/1808 4000 BR BKN010 TEMPO 1808/1812 BKN012 BECMG 1810/1811 24010KT PROB40 TEMPO 1816/1818 TS BKN012 FEW022CB
View NOTAMs / SUP AIP / TFR affecting this airport [VIEW]
Communications frequencies: [VIEW]

Runways:

RWY identifierQFULength (ft)Width (ft)SurfaceLDA (ft)
2110827148ASPH
0310827148ASPH

Airport contact information

Address: Cote D'Ivoire

Satellite view of DIKB